Погода в Чаянке

Россия / Брянская область     52°43′20″N   34°55′07″E
темп.,
°C
ветер,
м/с
пор.,
м/с
влажн.,
%
обл.,
%
осадки,
мм/ч
давл.,
гПа
погр.,
м
6 марта, сб
сб600:00−8зсз3392100 0.0 101633
03:00−9з3491100 0.0 101843
06:00−11зсз479769 0.0 101897
09:00−9сз389569 0.0 1020209
12:00−5сз47810 0.0 1020711
15:00−4зсз467616 0.2 10201101
18:00−7зсз358380 0.1 101976
21:00−10з348940 0.1 102059
7 марта, вс
вс700:00−11зюз47930 0.0 101996
03:00−10юз512910 0.0 1018228
06:00−8юз7158465 0.0 1014503
09:00−6юз10178382 0.0 1010754
12:00−3зюз111890100 0.1 10061219
15:00−1зюз111894100 0.8 10031300
18:00−1зюз111994100 0.9 10011375
21:00−2зсз81681100 2.1 10031193
8 марта, пн
пн800:00−5зюз51087100 0.0 1003240
03:00−4зюз51190100 0.1 1003368
06:00−6з51291100 0.1 1002537
09:00−7з6129169 0.1 1004539
12:00−4зсз6888100 0.3 1006896
15:00−4зсз587368 0.4 10081060
18:00−7сз4108533 0.0 1009336
21:00−10зсз469242 0.1 101285
9 марта, вт
вт900:00−11зсз349631 0.0 101448
03:00−12сз339744 0.1 101555
06:00−12ссз239796 0.1 101641
09:00−12ссз249698 0.1 1018142
12:00−9ссз2487100 0.0 1019526
15:00−7сз2483100 0.1 1020702
18:00−9зсз348598 0.1 102067
21:00−13сз348985 0.1 102345
10 марта, ср
ср1000:00−15сз22940 0.0 102320
03:00−16зюз22970 0.0 102420
06:00−14зюз339367 0.0 102438
09:00−11юз469484 0.0 1023250
12:00−7зюз5986100 0.0 1023641
15:00−5з5992100 0.2 1022764
18:00−5зюз5995100 0.6 1022439
21:00−7зюз499697 0.8 1023201